Location: Arboucave
(43.6130°N, 0.4343°W)
Time: 12:04:15
(UTC+00:00)

BREEZE-M DEB (TANK) - Pass Details

Date: 17 November 2025
Orbit: 304 x 15918 km, 49.4° (Epoch: 06 December)

Event Time Altitude Azimuth Distance (km) Brightness Sun altitude
Rises 17:20:12 0° 249° (WSW) 2,002 7.7 -8.5°
Reaches altitude 10° 17:21:40 10° 252° (WSW) 1,237 5.9 -8.7°
Maximum altitude 17:23:55 70° 338° (NNW) 453 1.9 -9.1°
Enters shadow 17:27:57 12° 63° (ENE) 2,236 4.8 -9.8°
